This is the latest recevied weather packets stored in our database for station/object EA3HRE-13. If no packets are shown the sender has not sent any weather packets the latest 10 day(s).
| Time | Temp. | Humidity | Pressure | Rain* | Wind** | Luminosity | Snow |
|---|---|---|---|---|---|---|---|
| 1787817442 | 27.78° C | 100% | 1009.6 hPa | 0 mm | - | - | - |
| 1787816842 | 27.22° C | 100% | 1009.8 hPa | 0 mm | - | - | - |
| 1787816242 | 25.56° C | 100% | 1009.5 hPa | 0 mm | - | - | - |
| 1787815642 | 27.22° C | 100% | 1009.5 hPa | 0 mm | - | - | - |
| 1787815042 | 26.67° C | 100% | 1009.5 hPa | 0 mm | - | - | - |
| 1787814442 | 26.67° C | 100% | 1009.4 hPa | 0 mm | - | - | - |
| 1787813816 | 26.11° C | 100% | 1009.5 hPa | 0 mm | - | - | - |
| 1787813216 | 26.11° C | 100% | 1009.5 hPa | 0 mm | - | - | - |
| 1787812587 | 25.56° C | 100% | 1009.5 hPa | 0 mm | - | - | - |
| 1787811986 | 25.56° C | 100% | 1009.5 hPa | 0 mm | - | - | - |
| 1787811386 | 25° C | 100% | 1009.2 hPa | 0 mm | - | - | - |
| 1787810786 | 25° C | 100% | 1009.1 hPa | 0 mm | - | - | - |
| 1787810156 | 25° C | 100% | 1009 hPa | 0 mm | - | - | - |
| 1787809556 | 25° C | 100% | 1009.1 hPa | 0 mm | - | - | - |
| 1787808956 | 24.44° C | 100% | 1009.1 hPa | 0 mm | - | - | - |
| 1787808326 | 24.44° C | 100% | 1009 hPa | 0 mm | - | - | - |
| 1787807695 | 24.44° C | 100% | 1008.8 hPa | 0 mm | - | - | - |
| 1787807095 | 24.44° C | 100% | 1008.6 hPa | 0 mm | - | - | - |
| 1787806495 | 24.44° C | 100% | 1008.6 hPa | 0 mm | - | - | - |
| 1787805865 | 24.44° C | 100% | 1008.5 hPa | 0 mm | - | - | - |
| 1787805265 | 24.44° C | 100% | 1008.4 hPa | 0 mm | - | - | - |
| 1787804665 | 25° C | 100% | 1008.4 hPa | 0 mm | - | - | - |
| 1787804065 | 25° C | 100% | 1008.5 hPa | 0 mm | - | - | - |
| 1787803435 | 25° C | 100% | 1008.4 hPa | 0 mm | - | - | - |
| 1787802835 | 25° C | 100% | 1008.7 hPa | 0 mm | - | - | - |
* Rain latest hour (hover to see other rain measurements)
** Current wind speed in m/s (hover to see current wind gust speed)